Year,Month,Day,Hour,Minute,Value (Times are PST for temperature in C)
2019,08,14,00,00,17.60
2019,08,14,00,01,17.60
2019,08,14,00,02,17.50
2019,08,14,00,03,17.50
2019,08,14,00,04,17.50
2019,08,14,00,05,17.50
2019,08,14,00,06,17.50
2019,08,14,00,07,17.50
2019,08,14,00,08,17.50
2019,08,14,00,09,17.50
2019,08,14,00,10,17.50
2019,08,14,00,11,17.40
2019,08,14,00,12,17.40
2019,08,14,00,13,17.40
2019,08,14,00,14,17.40
2019,08,14,00,15,17.40
2019,08,14,00,16,17.40
2019,08,14,00,17,17.40
2019,08,14,00,18,17.40
2019,08,14,00,19,17.30
2019,08,14,00,20,17.30
2019,08,14,00,21,17.30
2019,08,14,00,22,17.40
2019,08,14,00,23,17.40
2019,08,14,00,24,17.40
2019,08,14,00,25,17.40
2019,08,14,00,26,17.40
2019,08,14,00,27,17.40
2019,08,14,00,28,17.40
2019,08,14,00,29,17.40
2019,08,14,00,30,17.40
2019,08,14,00,31,17.40
2019,08,14,00,32,17.40
2019,08,14,00,33,17.40
2019,08,14,00,34,17.40
2019,08,14,00,35,17.40
2019,08,14,00,36,17.40
2019,08,14,00,37,17.40
2019,08,14,00,38,17.40
2019,08,14,00,39,17.30
2019,08,14,00,40,17.30
2019,08,14,00,41,17.30
2019,08,14,00,42,17.20
2019,08,14,00,43,17.20
2019,08,14,00,44,17.10
2019,08,14,00,45,17.00
2019,08,14,00,46,17.00
2019,08,14,00,47,16.90
2019,08,14,00,48,16.90
2019,08,14,00,49,16.80
2019,08,14,00,50,16.80
2019,08,14,00,51,16.70
2019,08,14,00,52,16.70
2019,08,14,00,53,16.70
2019,08,14,00,54,16.70
2019,08,14,00,55,16.70
2019,08,14,00,56,16.70
2019,08,14,00,57,16.70
2019,08,14,00,58,16.70
2019,08,14,00,59,16.70
2019,08,14,01,00,16.70
2019,08,14,01,01,16.70
2019,08,14,01,02,16.70
2019,08,14,01,03,16.70
2019,08,14,01,04,16.70
2019,08,14,01,05,16.70
2019,08,14,01,06,16.70
2019,08,14,01,07,16.70
2019,08,14,01,08,16.70
2019,08,14,01,09,16.70
2019,08,14,01,10,16.70
2019,08,14,01,11,16.70
2019,08,14,01,12,16.70
2019,08,14,01,13,16.70
2019,08,14,01,14,16.70
2019,08,14,01,15,16.70
2019,08,14,01,16,16.70
2019,08,14,01,17,16.70
2019,08,14,01,18,16.70
2019,08,14,01,19,16.70
2019,08,14,01,20,16.70
2019,08,14,01,21,16.70
2019,08,14,01,22,16.70
2019,08,14,01,23,16.70
2019,08,14,01,24,16.70
2019,08,14,01,25,16.70
2019,08,14,01,26,16.70
2019,08,14,01,27,16.70
2019,08,14,01,28,16.70
2019,08,14,01,29,16.70
2019,08,14,01,30,16.70
2019,08,14,01,31,16.70
2019,08,14,01,32,16.60
2019,08,14,01,33,16.60
2019,08,14,01,34,16.60
2019,08,14,01,35,16.60
2019,08,14,01,36,16.60
2019,08,14,01,37,16.60
2019,08,14,01,38,16.60
2019,08,14,01,39,16.60
2019,08,14,01,40,16.60
2019,08,14,01,41,16.60
2019,08,14,01,42,16.60
2019,08,14,01,43,16.50
2019,08,14,01,44,16.40
2019,08,14,01,45,16.40
2019,08,14,01,46,16.40
2019,08,14,01,47,16.40
2019,08,14,01,48,16.40
2019,08,14,01,49,16.40
2019,08,14,01,50,16.40
2019,08,14,01,51,16.40
2019,08,14,01,52,16.40
2019,08,14,01,53,16.40
2019,08,14,01,54,16.30
2019,08,14,01,55,16.30
2019,08,14,01,56,16.30
2019,08,14,01,57,16.20
2019,08,14,01,58,16.20
2019,08,14,01,59,16.20
2019,08,14,02,00,16.10
2019,08,14,02,01,16.10
2019,08,14,02,02,16.10
2019,08,14,02,03,16.10
2019,08,14,02,04,16.10
2019,08,14,02,05,16.10
2019,08,14,02,06,16.10
2019,08,14,02,07,16.10
2019,08,14,02,08,16.00
2019,08,14,02,09,15.90
2019,08,14,02,10,15.90
2019,08,14,02,11,15.90
2019,08,14,02,12,15.90
2019,08,14,02,13,15.90
2019,08,14,02,14,15.90
2019,08,14,02,15,15.90
2019,08,14,02,16,15.90
2019,08,14,02,17,15.90
2019,08,14,02,18,15.90
2019,08,14,02,19,15.90
2019,08,14,02,20,15.90
2019,08,14,02,21,15.90
2019,08,14,02,22,15.90
2019,08,14,02,23,15.90
2019,08,14,02,24,15.90
2019,08,14,02,25,15.90
2019,08,14,02,26,15.90
2019,08,14,02,27,15.90
2019,08,14,02,28,15.90
2019,08,14,02,29,15.90
2019,08,14,02,30,15.90
2019,08,14,02,31,15.90
2019,08,14,02,32,15.80
2019,08,14,02,33,15.80
2019,08,14,02,34,15.80
2019,08,14,02,35,15.80
2019,08,14,02,36,15.80
2019,08,14,02,37,15.80
2019,08,14,02,38,15.80
2019,08,14,02,39,15.80
2019,08,14,02,40,15.80
2019,08,14,02,41,15.70
2019,08,14,02,42,15.70
2019,08,14,02,43,15.70
2019,08,14,02,44,15.70
2019,08,14,02,45,15.70
2019,08,14,02,46,15.60
2019,08,14,02,47,15.60
2019,08,14,02,48,15.60
2019,08,14,02,49,15.60
2019,08,14,02,50,15.60
2019,08,14,02,51,15.50
2019,08,14,02,52,15.50
2019,08,14,02,53,15.50
2019,08,14,02,54,15.50
2019,08,14,02,55,15.50
2019,08,14,02,56,15.50
2019,08,14,02,57,15.40
2019,08,14,02,58,15.40
2019,08,14,02,59,15.40
2019,08,14,03,00,15.40
2019,08,14,03,01,15.40
2019,08,14,03,02,15.40
2019,08,14,03,03,15.40
2019,08,14,03,04,15.40
2019,08,14,03,05,15.30
2019,08,14,03,06,15.40
2019,08,14,03,07,15.40
2019,08,14,03,08,15.40
2019,08,14,03,09,15.40
2019,08,14,03,10,15.40
2019,08,14,03,11,15.40
2019,08,14,03,12,15.40
2019,08,14,03,13,15.40
2019,08,14,03,14,15.30
2019,08,14,03,15,15.30
2019,08,14,03,16,15.30
2019,08,14,03,17,15.30
2019,08,14,03,18,15.30
2019,08,14,03,19,15.30
2019,08,14,03,20,15.30
2019,08,14,03,21,15.30
2019,08,14,03,22,15.30
2019,08,14,03,23,15.30
2019,08,14,03,24,15.30
2019,08,14,03,25,15.30
2019,08,14,03,26,15.30
2019,08,14,03,27,15.30
2019,08,14,03,28,15.30
2019,08,14,03,29,15.30
2019,08,14,03,30,15.30
2019,08,14,03,31,15.30
2019,08,14,03,32,15.30
2019,08,14,03,33,15.30
2019,08,14,03,34,15.30
2019,08,14,03,35,15.30
2019,08,14,03,36,15.20
2019,08,14,03,37,15.20
2019,08,14,03,38,15.20
2019,08,14,03,39,15.20
2019,08,14,03,40,15.20
2019,08,14,03,41,15.20
2019,08,14,03,42,15.20
2019,08,14,03,43,15.20
2019,08,14,03,44,15.20
2019,08,14,03,45,15.20
2019,08,14,03,46,15.20
2019,08,14,03,47,15.20
2019,08,14,03,48,15.10
2019,08,14,03,49,15.10
2019,08,14,03,50,15.10
2019,08,14,03,51,15.10
2019,08,14,03,52,15.10
2019,08,14,03,53,15.10
2019,08,14,03,54,15.10
2019,08,14,03,55,15.10
2019,08,14,03,56,15.10
2019,08,14,03,57,15.10
2019,08,14,03,58,15.10
2019,08,14,03,59,15.10
2019,08,14,04,00,15.10
2019,08,14,04,01,15.10
2019,08,14,04,02,15.10
2019,08,14,04,03,15.10
2019,08,14,04,04,15.10
2019,08,14,04,05,15.10
2019,08,14,04,06,15.10
2019,08,14,04,07,15.10
2019,08,14,04,08,15.10
2019,08,14,04,09,15.10
2019,08,14,04,10,15.10
2019,08,14,04,11,15.10
2019,08,14,04,12,15.10
2019,08,14,04,13,15.10
2019,08,14,04,14,15.10
2019,08,14,04,15,15.10
2019,08,14,04,16,15.10
2019,08,14,04,17,15.00
2019,08,14,04,18,15.00
2019,08,14,04,19,15.00
2019,08,14,04,20,15.00
2019,08,14,04,21,15.00
2019,08,14,04,22,15.00
2019,08,14,04,23,15.00
2019,08,14,04,24,15.00
2019,08,14,04,25,15.00
2019,08,14,04,26,15.00
2019,08,14,04,27,15.00
2019,08,14,04,28,15.00
2019,08,14,04,29,15.00
2019,08,14,04,30,15.10
2019,08,14,04,31,15.10
2019,08,14,04,32,15.00
2019,08,14,04,33,15.00
2019,08,14,04,34,15.00
2019,08,14,04,35,15.00
2019,08,14,04,36,15.00
2019,08,14,04,37,15.00
2019,08,14,04,38,15.00
2019,08,14,04,39,15.00
2019,08,14,04,40,15.00
2019,08,14,04,41,15.00
2019,08,14,04,42,15.00
2019,08,14,04,43,15.00
2019,08,14,04,44,15.00
2019,08,14,04,45,15.00
2019,08,14,04,46,15.00
2019,08,14,04,47,15.00
2019,08,14,04,48,14.90
2019,08,14,04,49,14.90
2019,08,14,04,50,14.90
2019,08,14,04,51,14.90
2019,08,14,04,52,14.90
2019,08,14,04,53,14.90
2019,08,14,04,54,14.90
2019,08,14,04,55,14.90
2019,08,14,04,56,14.80
2019,08,14,04,57,14.80
2019,08,14,04,58,14.80
2019,08,14,04,59,14.80
2019,08,14,05,00,14.80
2019,08,14,05,01,14.80
2019,08,14,05,02,14.80
2019,08,14,05,03,14.80
2019,08,14,05,04,14.80
2019,08,14,05,05,14.80
2019,08,14,05,06,14.80
2019,08,14,05,07,14.70
2019,08,14,05,08,14.70
2019,08,14,05,09,14.70
2019,08,14,05,10,14.70
2019,08,14,05,11,14.70
2019,08,14,05,12,14.70
2019,08,14,05,13,14.60
2019,08,14,05,14,14.60
2019,08,14,05,15,14.60
2019,08,14,05,16,14.60
2019,08,14,05,17,14.60
2019,08,14,05,18,14.60
2019,08,14,05,19,14.60
2019,08,14,05,20,14.60
2019,08,14,05,21,14.60
2019,08,14,05,22,14.60
2019,08,14,05,23,14.60
2019,08,14,05,24,14.60
2019,08,14,05,25,14.60
2019,08,14,05,26,14.60
2019,08,14,05,27,14.50
2019,08,14,05,28,14.50
2019,08,14,05,29,14.50
2019,08,14,05,30,14.50
2019,08,14,05,31,14.50
2019,08,14,05,32,14.50
2019,08,14,05,33,14.50
2019,08,14,05,34,14.50
2019,08,14,05,35,14.40
2019,08,14,05,36,14.40
2019,08,14,05,37,14.40
2019,08,14,05,38,14.40
2019,08,14,05,39,14.30
2019,08,14,05,40,14.30
2019,08,14,05,41,14.30
2019,08,14,05,42,14.30
2019,08,14,05,43,14.30
2019,08,14,05,44,14.20
2019,08,14,05,45,14.20
2019,08,14,05,46,14.20
2019,08,14,05,47,14.20
2019,08,14,05,48,14.20
2019,08,14,05,49,14.20
2019,08,14,05,50,14.20
2019,08,14,05,51,14.20
2019,08,14,05,52,14.20
2019,08,14,05,53,14.20
2019,08,14,05,54,14.20
2019,08,14,05,55,14.20
2019,08,14,05,56,14.20
2019,08,14,05,57,14.20
2019,08,14,05,58,14.20
2019,08,14,05,59,14.20
2019,08,14,06,00,14.20
2019,08,14,06,01,14.20
2019,08,14,06,02,14.20
2019,08,14,06,03,14.20
2019,08,14,06,04,14.20
2019,08,14,06,05,14.10
2019,08,14,06,06,14.10
2019,08,14,06,07,14.10
2019,08,14,06,08,14.10
2019,08,14,06,09,14.10
2019,08,14,06,10,14.10
2019,08,14,06,11,14.00
2019,08,14,06,12,14.00
2019,08,14,06,13,14.00
2019,08,14,06,14,14.00
2019,08,14,06,15,14.00
2019,08,14,06,16,14.00
2019,08,14,06,17,14.00
2019,08,14,06,18,14.00
2019,08,14,06,19,14.00
2019,08,14,06,20,14.10
2019,08,14,06,21,14.10
2019,08,14,06,22,14.10
2019,08,14,06,23,14.10
2019,08,14,06,24,14.10
2019,08,14,06,25,14.10
2019,08,14,06,26,14.10
2019,08,14,06,27,14.10
2019,08,14,06,28,14.10
2019,08,14,06,29,14.10
2019,08,14,06,30,14.10
2019,08,14,06,31,14.20
2019,08,14,06,32,14.20
2019,08,14,06,33,14.20
2019,08,14,06,34,14.20
2019,08,14,06,35,14.20
2019,08,14,06,36,14.20
2019,08,14,06,37,14.20
2019,08,14,06,38,14.30
2019,08,14,06,39,14.30
2019,08,14,06,40,14.30
2019,08,14,06,41,14.40
2019,08,14,06,42,14.40
2019,08,14,06,43,14.40
2019,08,14,06,44,14.40
2019,08,14,06,45,14.50
2019,08,14,06,46,14.50
2019,08,14,06,47,14.50
2019,08,14,06,48,14.50
2019,08,14,06,49,14.50
2019,08,14,06,50,14.50
2019,08,14,06,51,14.50
2019,08,14,06,52,14.60
2019,08,14,06,53,14.60
2019,08,14,06,54,14.60
2019,08,14,06,55,14.60
2019,08,14,06,56,14.70
2019,08,14,06,57,14.70
2019,08,14,06,58,14.80
2019,08,14,06,59,14.90
2019,08,14,07,00,14.90
2019,08,14,07,01,15.00
2019,08,14,07,02,15.10
2019,08,14,07,03,15.10
2019,08,14,07,04,15.20
2019,08,14,07,05,15.30
2019,08,14,07,06,15.30
2019,08,14,07,07,15.40
2019,08,14,07,08,15.50
2019,08,14,07,09,15.50
2019,08,14,07,10,15.60
2019,08,14,07,11,15.60
2019,08,14,07,12,15.70
2019,08,14,07,13,15.70
2019,08,14,07,14,15.80
2019,08,14,07,15,15.80
2019,08,14,07,16,15.80
2019,08,14,07,17,15.80
2019,08,14,07,18,15.80
2019,08,14,07,19,15.90
2019,08,14,07,20,15.90
2019,08,14,07,21,16.00
2019,08,14,07,22,16.10
2019,08,14,07,23,16.10
2019,08,14,07,24,16.20
2019,08,14,07,25,16.30
2019,08,14,07,26,16.40
2019,08,14,07,27,16.50
2019,08,14,07,28,16.60
2019,08,14,07,29,16.70
2019,08,14,07,30,16.80
2019,08,14,07,31,16.90
2019,08,14,07,32,17.00
2019,08,14,07,33,17.20
2019,08,14,07,34,17.30
2019,08,14,07,35,17.40
2019,08,14,07,36,17.50
2019,08,14,07,37,17.60
2019,08,14,07,38,17.60
2019,08,14,07,39,17.70
2019,08,14,07,40,17.70
2019,08,14,07,41,17.70
2019,08,14,07,42,17.70
2019,08,14,07,43,17.80
2019,08,14,07,44,17.90
2019,08,14,07,45,17.90
2019,08,14,07,46,18.00
2019,08,14,07,47,18.10
2019,08,14,07,48,18.20
2019,08,14,07,49,18.20
2019,08,14,07,50,18.30
2019,08,14,07,51,18.40
2019,08,14,07,52,18.40
2019,08,14,07,53,18.40
2019,08,14,07,54,18.50
2019,08,14,07,55,18.50
2019,08,14,07,56,18.60
2019,08,14,07,57,18.70
2019,08,14,07,58,18.70
2019,08,14,07,59,18.80
2019,08,14,08,00,18.90
2019,08,14,08,01,19.00
2019,08,14,08,02,19.10
2019,08,14,08,03,19.10
2019,08,14,08,04,19.10
2019,08,14,08,05,19.10
2019,08,14,08,06,19.10
2019,08,14,08,07,19.10
2019,08,14,08,08,19.10
2019,08,14,08,09,19.10
2019,08,14,08,10,19.10
2019,08,14,08,11,19.10
2019,08,14,08,12,19.10
2019,08,14,08,13,19.10
2019,08,14,08,14,19.10
2019,08,14,08,15,19.10
2019,08,14,08,16,19.20
2019,08,14,08,17,19.30
2019,08,14,08,18,19.30
2019,08,14,08,19,19.30
2019,08,14,08,20,19.40
2019,08,14,08,21,19.40
2019,08,14,08,22,19.50
2019,08,14,08,23,19.60
2019,08,14,08,24,19.60
2019,08,14,08,25,19.70
2019,08,14,08,26,19.80
2019,08,14,08,27,19.90
2019,08,14,08,28,19.90
2019,08,14,08,29,19.90
2019,08,14,08,30,19.90
2019,08,14,08,31,20.00
2019,08,14,08,32,20.10
2019,08,14,08,33,20.20
2019,08,14,08,34,20.20
2019,08,14,08,35,20.20
2019,08,14,08,36,20.20
2019,08,14,08,37,20.20
2019,08,14,08,38,20.20
2019,08,14,08,39,20.20
2019,08,14,08,40,20.20
2019,08,14,08,41,20.20
2019,08,14,08,42,20.20
2019,08,14,08,43,20.20
2019,08,14,08,44,20.20
2019,08,14,08,45,20.20
2019,08,14,08,46,20.20
2019,08,14,08,47,20.20
2019,08,14,08,48,20.20
2019,08,14,08,49,20.20
2019,08,14,08,50,20.30
2019,08,14,08,51,20.40
2019,08,14,08,52,20.50
2019,08,14,08,53,20.60
2019,08,14,08,54,20.70
2019,08,14,08,55,20.80
2019,08,14,08,56,20.90
2019,08,14,08,57,20.90
2019,08,14,08,58,21.00
2019,08,14,08,59,21.10
2019,08,14,09,00,21.10
2019,08,14,09,01,21.20
2019,08,14,09,02,21.30
2019,08,14,09,03,21.30
2019,08,14,09,04,21.40
2019,08,14,09,05,21.50
2019,08,14,09,06,21.60
2019,08,14,09,07,21.60
2019,08,14,09,08,21.60
2019,08,14,09,09,21.60
2019,08,14,09,10,21.40
2019,08,14,09,11,21.40
2019,08,14,09,12,21.40
2019,08,14,09,13,21.40
2019,08,14,09,14,21.40
2019,08,14,09,15,21.40
2019,08,14,09,16,21.40
2019,08,14,09,17,21.50
2019,08,14,09,18,21.60
2019,08,14,09,19,21.60
2019,08,14,09,20,21.70
2019,08,14,09,21,21.80
2019,08,14,09,22,22.00
2019,08,14,09,23,22.10
2019,08,14,09,24,22.20
2019,08,14,09,25,22.20
2019,08,14,09,26,22.20
2019,08,14,09,27,22.20
2019,08,14,09,28,22.10
2019,08,14,09,29,22.10
2019,08,14,09,30,22.10
2019,08,14,09,31,22.10
2019,08,14,09,32,22.10
2019,08,14,09,33,22.20
2019,08,14,09,34,22.20
2019,08,14,09,35,22.30
2019,08,14,09,36,22.40
2019,08,14,09,37,22.50
2019,08,14,09,38,22.60
2019,08,14,09,39,22.60
2019,08,14,09,40,22.70
2019,08,14,09,41,22.70
2019,08,14,09,42,22.70
2019,08,14,09,43,22.70
2019,08,14,09,44,22.70
2019,08,14,09,45,22.80
2019,08,14,09,46,22.80
2019,08,14,09,47,22.90
2019,08,14,09,48,22.90
2019,08,14,09,49,22.90
2019,08,14,09,50,22.90
2019,08,14,09,51,22.90
2019,08,14,09,52,22.90
2019,08,14,09,53,22.80
2019,08,14,09,54,22.80
2019,08,14,09,55,22.80
2019,08,14,09,56,22.80
2019,08,14,09,57,22.80
2019,08,14,09,58,22.70
2019,08,14,09,59,22.80
2019,08,14,10,00,22.80
2019,08,14,10,01,22.90
2019,08,14,10,02,22.90
2019,08,14,10,03,22.90
2019,08,14,10,04,22.90
2019,08,14,10,05,23.00
2019,08,14,10,06,23.00
2019,08,14,10,07,22.90
2019,08,14,10,08,22.90
2019,08,14,10,09,22.90
2019,08,14,10,10,22.80
2019,08,14,10,11,22.70
2019,08,14,10,12,22.60
2019,08,14,10,13,22.50
2019,08,14,10,14,22.60
2019,08,14,10,15,22.60
2019,08,14,10,16,22.70
2019,08,14,10,17,22.80
2019,08,14,10,18,22.90
2019,08,14,10,19,23.10
2019,08,14,10,20,23.30
2019,08,14,10,21,23.30
2019,08,14,10,22,23.40
2019,08,14,10,23,23.40
2019,08,14,10,24,23.30
2019,08,14,10,25,23.30
2019,08,14,10,26,23.30
2019,08,14,10,27,23.40
2019,08,14,10,28,23.50
2019,08,14,10,29,23.60
2019,08,14,10,30,23.60
2019,08,14,10,31,23.50
2019,08,14,10,32,23.30
2019,08,14,10,33,23.20
2019,08,14,10,34,23.10
2019,08,14,10,35,23.10
2019,08,14,10,36,23.00
2019,08,14,10,37,22.90
2019,08,14,10,38,22.90
2019,08,14,10,39,22.90
2019,08,14,10,40,22.90
2019,08,14,10,41,22.90
2019,08,14,10,42,22.90
2019,08,14,10,43,22.90
2019,08,14,10,44,22.90
2019,08,14,10,45,22.90
2019,08,14,10,46,22.90
2019,08,14,10,47,22.90
2019,08,14,10,48,22.90
2019,08,14,10,49,22.90
2019,08,14,10,50,23.00
2019,08,14,10,51,23.30
2019,08,14,10,52,23.40
2019,08,14,10,53,23.60
2019,08,14,10,54,23.70
2019,08,14,10,55,23.80
2019,08,14,10,56,23.80
2019,08,14,10,57,23.80
2019,08,14,10,58,23.80
2019,08,14,10,59,23.70
2019,08,14,11,00,23.70
2019,08,14,11,01,23.70
2019,08,14,11,02,23.70
2019,08,14,11,03,23.70
2019,08,14,11,04,23.70
2019,08,14,11,05,23.70
2019,08,14,11,06,23.70
2019,08,14,11,07,23.70
2019,08,14,11,08,23.70
2019,08,14,11,09,23.70
2019,08,14,11,10,23.70
2019,08,14,11,11,23.70
2019,08,14,11,12,23.70
2019,08,14,11,13,23.70
2019,08,14,11,14,23.80
2019,08,14,11,15,24.00
2019,08,14,11,16,24.10
2019,08,14,11,17,24.20
2019,08,14,11,18,24.30
2019,08,14,11,19,24.40
2019,08,14,11,20,24.40
2019,08,14,11,21,24.20
2019,08,14,11,22,24.00
2019,08,14,11,23,23.90
2019,08,14,11,24,23.80
2019,08,14,11,25,23.80
2019,08,14,11,26,23.90
2019,08,14,11,27,24.00
2019,08,14,11,28,24.10
2019,08,14,11,29,24.20
2019,08,14,11,30,24.30
2019,08,14,11,31,24.30
2019,08,14,11,32,24.20
2019,08,14,11,33,24.00
2019,08,14,11,34,23.80
2019,08,14,11,35,23.70
2019,08,14,11,36,23.60
2019,08,14,11,37,23.60
2019,08,14,11,38,23.60
2019,08,14,11,39,23.60
2019,08,14,11,40,23.50
2019,08,14,11,41,23.40
2019,08,14,11,42,23.50
2019,08,14,11,43,23.60
2019,08,14,11,44,23.70
2019,08,14,11,45,23.70
2019,08,14,11,46,23.70
2019,08,14,11,47,23.80
2019,08,14,11,48,23.90
2019,08,14,11,49,23.90
2019,08,14,11,50,24.00
2019,08,14,11,51,24.10
2019,08,14,11,52,24.10
2019,08,14,11,53,24.10
2019,08,14,11,54,24.20
2019,08,14,11,55,24.20
2019,08,14,11,56,24.20
2019,08,14,11,57,24.20
2019,08,14,11,58,24.30
2019,08,14,11,59,24.40
2019,08,14,12,00,24.40
2019,08,14,12,01,24.30
2019,08,14,12,02,24.30
2019,08,14,12,03,24.40
2019,08,14,12,04,24.40
2019,08,14,12,05,24.40
2019,08,14,12,06,24.60
2019,08,14,12,07,24.70
2019,08,14,12,08,24.90
2019,08,14,12,09,24.90
2019,08,14,12,10,24.80
2019,08,14,12,11,24.60
2019,08,14,12,12,24.50
2019,08,14,12,13,24.20
2019,08,14,12,14,24.00
2019,08,14,12,15,23.80
2019,08,14,12,16,23.70
2019,08,14,12,17,23.60
2019,08,14,12,18,23.50
2019,08,14,12,19,23.40
2019,08,14,12,20,23.40
2019,08,14,12,21,23.50
2019,08,14,12,22,23.70
2019,08,14,12,23,23.70
2019,08,14,12,24,23.60
2019,08,14,12,25,23.40
2019,08,14,12,26,23.40
2019,08,14,12,27,23.40
2019,08,14,12,28,23.40
2019,08,14,12,29,23.50
2019,08,14,12,30,23.60
2019,08,14,12,31,23.70
2019,08,14,12,32,23.70
2019,08,14,12,33,23.70
2019,08,14,12,34,23.60
2019,08,14,12,35,23.60
2019,08,14,12,36,23.70
2019,08,14,12,37,23.60
2019,08,14,12,38,23.40
2019,08,14,12,39,23.30
2019,08,14,12,40,23.30
2019,08,14,12,41,23.40
2019,08,14,12,42,23.50
2019,08,14,12,43,23.60
2019,08,14,12,44,23.60
2019,08,14,12,45,23.60
2019,08,14,12,46,23.60
2019,08,14,12,47,23.70
2019,08,14,12,48,23.60
2019,08,14,12,49,23.50
2019,08,14,12,50,23.40
2019,08,14,12,51,23.30
2019,08,14,12,52,23.20
2019,08,14,12,53,23.10
2019,08,14,12,54,23.10
2019,08,14,12,55,23.30
2019,08,14,12,56,23.30
2019,08,14,12,57,23.30
2019,08,14,12,58,23.40
2019,08,14,12,59,23.60
2019,08,14,13,00,23.70
2019,08,14,13,01,23.80
2019,08,14,13,02,23.90
2019,08,14,13,03,24.00
2019,08,14,13,04,24.00
2019,08,14,13,05,24.10
2019,08,14,13,06,24.20
2019,08,14,13,07,24.30
2019,08,14,13,08,24.30
2019,08,14,13,09,24.20
2019,08,14,13,10,24.10
2019,08,14,13,11,24.10
2019,08,14,13,12,24.10
2019,08,14,13,13,23.90
2019,08,14,13,14,23.90
2019,08,14,13,15,23.90
2019,08,14,13,16,24.00
2019,08,14,13,17,24.10
2019,08,14,13,18,24.30
2019,08,14,13,19,24.50
2019,08,14,13,20,24.40
2019,08,14,13,21,24.30
2019,08,14,13,22,24.20
2019,08,14,13,23,24.10
2019,08,14,13,24,23.90
2019,08,14,13,25,23.80
2019,08,14,13,26,23.70
2019,08,14,13,27,23.70
2019,08,14,13,28,23.70
2019,08,14,13,29,23.70
2019,08,14,13,30,23.80
2019,08,14,13,31,24.00
2019,08,14,13,32,24.10
2019,08,14,13,33,24.20
2019,08,14,13,34,24.30
2019,08,14,13,35,24.40
2019,08,14,13,36,24.50
2019,08,14,13,37,24.50
2019,08,14,13,38,24.50
2019,08,14,13,39,24.40
2019,08,14,13,40,24.30
2019,08,14,13,41,24.20
2019,08,14,13,42,24.30
2019,08,14,13,43,24.20
2019,08,14,13,44,24.30
2019,08,14,13,45,24.30
2019,08,14,13,46,24.30
2019,08,14,13,47,24.40
2019,08,14,13,48,24.40
2019,08,14,13,49,24.50
2019,08,14,13,50,24.50
2019,08,14,13,51,24.60
2019,08,14,13,52,24.50
2019,08,14,13,53,24.40
2019,08,14,13,54,24.40
2019,08,14,13,55,24.30
2019,08,14,13,56,24.30
2019,08,14,13,57,24.40
2019,08,14,13,58,24.40
2019,08,14,13,59,24.50
2019,08,14,14,00,24.60
2019,08,14,14,01,24.60
2019,08,14,14,02,24.60
2019,08,14,14,03,24.60
2019,08,14,14,04,24.70
2019,08,14,14,05,24.80
2019,08,14,14,06,24.70
2019,08,14,14,07,24.90
2019,08,14,14,08,25.00
2019,08,14,14,09,25.00
2019,08,14,14,10,24.90
2019,08,14,14,11,24.90
2019,08,14,14,12,24.90
2019,08,14,14,13,24.90
2019,08,14,14,14,24.80
2019,08,14,14,15,24.70
2019,08,14,14,16,24.60
2019,08,14,14,17,24.50
2019,08,14,14,18,24.40
2019,08,14,14,19,24.50
2019,08,14,14,20,24.50
2019,08,14,14,21,24.50
2019,08,14,14,22,24.50
2019,08,14,14,23,24.60
2019,08,14,14,24,24.60
2019,08,14,14,25,24.60
2019,08,14,14,26,24.70
2019,08,14,14,27,24.70
2019,08,14,14,28,24.70
2019,08,14,14,29,24.50
2019,08,14,14,30,24.40
2019,08,14,14,31,24.20
2019,08,14,14,32,24.30
2019,08,14,14,33,24.40
2019,08,14,14,34,24.40
2019,08,14,14,35,24.30
2019,08,14,14,36,24.40
2019,08,14,14,37,24.40
2019,08,14,14,38,24.50
2019,08,14,14,39,24.40
2019,08,14,14,40,24.40
2019,08,14,14,41,24.30
2019,08,14,14,42,24.30
2019,08,14,14,43,24.20
2019,08,14,14,44,24.10
2019,08,14,14,45,24.10
2019,08,14,14,46,24.10
2019,08,14,14,47,23.90
2019,08,14,14,48,23.80
2019,08,14,14,49,23.80
2019,08,14,14,50,23.90
2019,08,14,14,51,24.10
2019,08,14,14,52,24.10
2019,08,14,14,53,24.10
2019,08,14,14,54,24.10
2019,08,14,14,55,24.10
2019,08,14,14,56,24.10
2019,08,14,14,57,24.00
2019,08,14,14,58,23.90
2019,08,14,14,59,24.00
2019,08,14,15,00,24.10
2019,08,14,15,01,24.10
2019,08,14,15,02,24.10
2019,08,14,15,03,24.00
2019,08,14,15,04,24.00
2019,08,14,15,05,24.10
2019,08,14,15,06,24.10
2019,08,14,15,07,24.20
2019,08,14,15,08,24.20
2019,08,14,15,09,24.20
2019,08,14,15,10,24.30
2019,08,14,15,11,24.20
2019,08,14,15,12,24.30
2019,08,14,15,13,24.40
2019,08,14,15,14,24.50
2019,08,14,15,15,24.50
2019,08,14,15,16,24.50
2019,08,14,15,17,24.40
2019,08,14,15,18,24.40
2019,08,14,15,19,24.40
2019,08,14,15,20,24.30
2019,08,14,15,21,24.40
2019,08,14,15,22,24.40
2019,08,14,15,23,24.50
2019,08,14,15,24,24.50
2019,08,14,15,25,24.50
2019,08,14,15,26,24.60
2019,08,14,15,27,24.70
2019,08,14,15,28,24.80
2019,08,14,15,29,24.80
2019,08,14,15,30,24.90
2019,08,14,15,31,24.80
2019,08,14,15,32,24.80
2019,08,14,15,33,24.90
2019,08,14,15,34,25.00
2019,08,14,15,35,25.10
2019,08,14,15,36,25.10
2019,08,14,15,37,25.10
2019,08,14,15,38,25.00
2019,08,14,15,39,25.20
2019,08,14,15,40,25.30
2019,08,14,15,41,25.40
2019,08,14,15,42,25.50
2019,08,14,15,43,25.50
2019,08,14,15,44,25.50
2019,08,14,15,45,25.50
2019,08,14,15,46,25.40
2019,08,14,15,47,25.40
2019,08,14,15,48,25.20
2019,08,14,15,49,25.10
2019,08,14,15,50,25.10
2019,08,14,15,51,25.00
2019,08,14,15,52,25.00
2019,08,14,15,53,25.00
2019,08,14,15,54,25.00
2019,08,14,15,55,25.00
2019,08,14,15,56,25.10
2019,08,14,15,57,25.00
2019,08,14,15,58,25.00
2019,08,14,15,59,24.90
2019,08,14,16,00,24.80
2019,08,14,16,01,24.80
2019,08,14,16,02,24.70
2019,08,14,16,03,24.80
2019,08,14,16,04,25.00
2019,08,14,16,05,25.10
2019,08,14,16,06,25.20
2019,08,14,16,07,25.30
2019,08,14,16,08,25.40
2019,08,14,16,09,25.30
2019,08,14,16,10,25.10
2019,08,14,16,11,25.10
2019,08,14,16,12,25.00
2019,08,14,16,13,25.10
2019,08,14,16,14,25.00
2019,08,14,16,15,25.00
2019,08,14,16,16,25.00
2019,08,14,16,17,25.10
2019,08,14,16,18,25.10
2019,08,14,16,19,25.10
2019,08,14,16,20,25.20
2019,08,14,16,21,25.20
2019,08,14,16,22,25.10
2019,08,14,16,23,25.10
2019,08,14,16,24,25.00
2019,08,14,16,25,25.20
2019,08,14,16,26,25.30
2019,08,14,16,27,25.30
2019,08,14,16,28,25.30
2019,08,14,16,29,25.30
2019,08,14,16,30,25.20
2019,08,14,16,31,25.20
2019,08,14,16,32,25.30
2019,08,14,16,33,25.40
2019,08,14,16,34,25.40
2019,08,14,16,35,25.40
2019,08,14,16,36,25.40
2019,08,14,16,37,25.30
2019,08,14,16,38,25.30
2019,08,14,16,39,25.30
2019,08,14,16,40,25.30
2019,08,14,16,41,25.20
2019,08,14,16,42,25.10
2019,08,14,16,43,25.00
2019,08,14,16,44,25.10
2019,08,14,16,45,25.20
2019,08,14,16,46,25.20
2019,08,14,16,47,25.20
2019,08,14,16,48,25.20
2019,08,14,16,49,25.20
2019,08,14,16,50,25.10
2019,08,14,16,51,25.20
2019,08,14,16,52,25.30
2019,08,14,16,53,25.40
2019,08,14,16,54,25.40
2019,08,14,16,55,25.30
2019,08,14,16,56,25.30
2019,08,14,16,57,25.20
2019,08,14,16,58,25.20
2019,08,14,16,59,25.20
2019,08,14,17,00,25.20
2019,08,14,17,01,25.10
2019,08,14,17,02,25.20
2019,08,14,17,03,25.20
2019,08,14,17,04,25.20
2019,08,14,17,05,25.20
2019,08,14,17,06,25.20
2019,08,14,17,07,25.20
2019,08,14,17,08,25.20
2019,08,14,17,09,25.20
2019,08,14,17,10,25.20
2019,08,14,17,11,25.20
2019,08,14,17,12,25.10
2019,08,14,17,13,25.10
2019,08,14,17,14,25.00
2019,08,14,17,15,25.00
2019,08,14,17,16,24.90
2019,08,14,17,17,25.00
2019,08,14,17,18,25.10
2019,08,14,17,19,25.20